{"data":{"norad_id":67256,"intl_designator":"2025-313J","name":"SITRO-AIS-57","alt_names":[],"object_type":"PAYLOAD","status":"ACTIVE","operator":null,"country":"CIS","launch_date":"2025-12-28","launch_site_code":"VOSTO","launch_vehicle":null,"mission":null,"orbit_class":"UNKNOWN","rcs_meters":null,"size_class":null,"mass_kg":null,"dimensions":null,"purposes":[],"wikipedia_slug":null,"has_3d_model":false,"image_url":null,"decayed_at":null,"tle_current":{"epoch":"2026-09-19T10:35:38.581728Z","epoch_age_seconds":194530,"freshness":"STALE","line1":"1 67256U 25313J   26262.44141877  .00005825  00000+0  23870-3 0  9996","line2":"2 67256  97.3845 335.6524 0015776  36.0958 324.1342 15.24549577 40304","mean_motion":15.24549577,"eccentricity":0.0015776,"inclination_deg":97.3845,"raan_deg":335.6524,"arg_perigee_deg":36.0958,"mean_anomaly_deg":324.1342,"bstar":0.0002387,"rev_number":4030,"period_min":94.454127417334,"perigee_km":481.29975405264,"apogee_km":502.97684668035,"semimajor_km":6870.2753003665,"source":"CELESTRAK","updated_at":"2026-09-21T09:00:16.512878Z"}}}